Regional Weather Roundup
Issued by NWS Charleston, WV

Home | Current Version | Previous Version | Graphics & Text | Print | Product List | Glossary On
Versions: 1 2 3 4 5 6 7 8 9 10 11 12 13 14 15 16 17 18 19 20 21 22 23 24 25 26 27 28 29 30 31 32 33 34 35 36 37 38 39 40 41 42 43 44 45 46 47 48 49 50
000
ASUS41 KRLX 032010
RWRRLX
West Virginia Regional Weather Roundup
National Weather Service Charleston WV
300 PM EST SAT DEC 03 2016

Note: "fair" indicates few or no clouds below 12,000 feet with no
significant weather and/or obstructions to visibility.

WVZ003-032100-
Northern Panhandle of West Virginia

CITY           SKY/WX    TMP DP  RH WIND       PRES   REMARKS
WHEELING       CLOUDY    35  26  69 W13       30.29R
$$

WVZ009-032100-
Northwest West Virginia

CITY           SKY/WX    TMP DP  RH WIND       PRES   REMARKS
PARKERSBURG    CLOUDY    39  27  62 CALM      30.36R
$$

WVZ006-032100-
Western West Virginia

CITY           SKY/WX    TMP DP  RH WIND       PRES   REMARKS
HUNTINGTON     CLOUDY    42  28  57 NW3       30.33F
$$

WVZ015-032100-
West Central West Virginia

CITY           SKY/WX    TMP DP  RH WIND       PRES   REMARKS
CHARLESTON     CLOUDY    40  26  57 NW5       30.32F
$$

WVZ022-031-032100-
North Central West Virginia

CITY           SKY/WX    TMP DP  RH WIND       PRES   REMARKS
CLARKSBURG     CLOUDY    37  26  64 W5        30.31R
MORGANTOWN     CLOUDY    38  25  59 VRB6      30.31R
$$

WVZ025-035-042-045-032100-
Southern West Virginia

CITY           SKY/WX    TMP DP  RH WIND       PRES   REMARKS
BECKLEY        CLOUDY    34  24  67 NW6       30.26S
LOGAN          CLOUDY    39  27  60 CALM      30.29F
BLUEFIELD      CLOUDY    32  24  72 W9        30.25S
LEWISBURG      CLOUDY    35  25  66 W6        30.26R
$$

WVZ047-032100-
Northern Mountains of West Virginia

CITY           SKY/WX    TMP DP  RH WIND       PRES   REMARKS
ELKINS         CLOUDY    34  24  67 W7        30.28R
$$

WVZ052-032100-
Eastern Panhandle of West Virginia

CITY           SKY/WX    TMP DP  RH WIND       PRES   REMARKS
MARTINSBURG    CLOUDY    43  28  55 NW16      30.24R
PETERSBURG     MOSUNNY   44  30  57 W8        30.27R
$$



USA.gov is the U.S. government's official web portal to all federal, state and local government web resources and services.